IA5ITY-13 Weather Reports


time (UTC)temp
C
wind
direction
speed
KPH
gust
KPH
rain 1hr
cm
rain 24hr
cm
rain mn
cm
humidity
%
barometer
mb
20260503212508 16 70 0.0 0.0 0.00 0.00 0.00 81 1017.7
20260503212012 16 94 0.0 0.0 0.00 0.00 0.00 82 1017.7
20260503211512 16 87 0.0 0.0 0.00 0.00 0.00 81 1017.7
20260503211012 16 76 0.0 0.0 0.00 0.00 0.00 82 1017.7
20260503210509 16 103 3.2 3.2 0.00 0.00 0.00 82 1017.7
20260503210030 16 68 0.0 0.0 0.00 0.00 0.00 82 1017.7
20260503205508 16 47 3.2 3.2 0.00 0.00 0.00 82 1017.7
20260503205013 16 89 0.0 0.0 0.00 0.00 0.00 82 1017.8
20260503204511 16 78 0.0 0.0 0.00 0.00 0.00 82 1017.9
20260503204012 16 61 1.6 1.6 0.00 0.00 0.00 82 1017.9
20260503203509 16 85 0.0 0.0 0.00 0.00 0.00 82 1017.9
20260503203021 16 79 0.0 0.0 0.00 0.00 0.00 82 1018.0
20260503202509 16 66 0.0 0.0 0.00 0.00 0.00 82 1017.9
20260503202012 16 77 0.0 0.0 0.00 0.00 0.00 81 1017.9
20260503201512 16 61 0.0 0.0 0.00 0.00 0.00 81 1018.0
20260503201011 16 66 0.0 0.0 0.00 0.00 0.00 80 1018.0
20260503200509 16 89 0.0 0.0 0.00 0.00 0.00 80 1018.0
20260503200029 16 67 0.0 0.0 0.00 0.00 0.00 80 1017.9
20260503195509 16 71 0.0 0.0 0.00 0.00 0.00 80 1018.0
20260503195012 16 93 0.0 0.0 0.00 0.00 0.00 80 1017.9
20260503194511 16 82 0.0 0.0 0.00 0.00 0.00 79 1017.8
20260503194012 16 54 1.6 1.6 0.00 0.00 0.00 79 1017.8
20260503193508 16 71 1.6 3.2 0.00 0.00 0.00 79 1017.7
20260503193022 16 61 3.2 3.2 0.00 0.00 0.00 78 1017.7
20260503192509 16 59 1.6 1.6 0.00 0.00 0.00 79 1017.8
20260503192013 16 85 1.6 1.6 0.00 0.00 0.00 79 1017.7
20260503191512 16 74 0.0 0.0 0.00 0.00 0.00 79 1017.6
20260503191011 16 68 0.0 0.0 0.00 0.00 0.00 78 1017.6
20260503190508 16 67 0.0 0.0 0.00 0.00 0.00 78 1017.6
20260503190029 16 99 0.0 0.0 0.00 0.00 0.00 78 1017.5
20260503185509 16 101 0.0 0.0 0.00 0.00 0.00 78 1017.5
20260503185013 16 135 0.0 0.0 0.00 0.00 0.00 78 1017.5
20260503184512 16 100 0.0 0.0 0.00 0.00 0.00 78 1017.4
20260503184012 16 74 0.0 0.0 0.00 0.00 0.00 77 1017.3
20260503183509 16 85 0.0 0.0 0.00 0.00 0.00 77 1017.3
20260503183022 16 94 0.0 0.0 0.00 0.00 0.00 77 1017.2
20260503182508 16 94 0.0 0.0 0.00 0.00 0.00 76 1017.2
20260503182012 16 84 0.0 0.0 0.00 0.00 0.00 76 1017.2
20260503181512 16 88 0.0 0.0 0.00 0.00 0.00 76 1017.2
20260503181012 16 91 0.0 0.0 0.00 0.00 0.00 75 1017.2
20260503180508 17 90 0.0 0.0 0.00 0.00 0.00 75 1017.2
20260503180028 17 122 0.0 0.0 0.00 0.00 0.00 75 1017.3
20260503175509 17 102 0.0 0.0 0.00 0.00 0.00 74 1017.2
20260503175013 17 96 0.0 0.0 0.00 0.00 0.00 74 1017.2
20260503174512 17 101 0.0 0.0 0.00 0.00 0.00 74 1017.2
20260503174012 17 126 0.0 0.0 0.00 0.00 0.00 74 1017.1
20260503173509 17 86 0.0 0.0 0.00 0.00 0.00 73 1017.1
20260503173022 17 138 0.0 0.0 0.00 0.00 0.00 74 1017.1
20260503172509 17 120 0.0 0.0 0.00 0.00 0.00 72 1017.0
20260503172012 17 73 0.0 0.0 0.00 0.00 0.00 73 1017.0
20260503171512 17 130 0.0 0.0 0.00 0.00 0.00 73 1017.2
20260503171014 17 179 0.0 0.0 0.00 0.00 0.00 73 1017.2
20260503170509 17 184 0.0 0.0 0.00 0.00 0.00 71 1017.2
20260503151012 18 163 0.0 0.0 0.00 0.00 0.00 65 1017.3
20260503150510 20 206 3.2 3.2 0.00 0.00 0.00 63 1017.3
20260503131013 20 164 0.0 0.0 0.00 0.00 0.00 56 1018.3
20260503110509 21 133 0.0 0.0 0.00 0.00 0.00 57 1019.9
20260503090508 18 130 0.0 0.0 0.00 0.00 0.00 64 1019.7
20260503081512 17 121 1.6 1.6 0.00 0.00 0.00 67 1019.5
20260503081012 17 166 0.0 0.0 0.00 0.00 0.00 66 1019.4
20260503080508 17 144 0.0 0.0 0.00 0.00 0.00 68 1019.4
20260503072508 17 197 0.0 0.0 0.00 0.00 0.00 62 1019.1
20260503072012 17 91 0.0 0.0 0.00 0.00 0.00 63 1019.2
20260503071512 17 168 1.6 1.6 0.00 0.00 0.00 60 1019.3
20260503071012 18 139 1.6 1.6 0.00 0.00 0.00 59 1019.2
20260503070509 18 154 0.0 0.0 0.00 0.00 0.00 56 1019.2
20260503055012 16 92 0.0 0.0 0.00 0.00 0.00 52 1019.3
20260503054511 16 82 1.6 1.6 0.00 0.00 0.00 54 1019.3
20260503054012 17 36 0.0 0.0 0.00 0.00 0.00 54 1019.3
20260503053508 16 33 0.0 0.0 0.00 0.00 0.00 48 1019.3
20260503053021 15 59 0.0 0.0 0.00 0.00 0.00 51 1019.2
20260503052508 13 70 0.0 0.0 0.00 0.00 0.00 56 1019.2
20260503052012 12 74 1.6 3.2 0.00 0.00 0.00 57 1019.2
20260503051512 12 60 0.0 0.0 0.00 0.00 0.00 57 1019.2
20260503051012 12 57 1.6 1.6 0.00 0.00 0.00 57 1019.2
20260503050508 12 62 1.6 1.6 0.00 0.00 0.00 57 1019.2
20260503050029 12 55 0.0 0.0 0.00 0.00 0.00 58 1019.3
20260503045511 12 40 0.0 0.0 0.00 0.00 0.00 59 1019.3
20260503045012 12 24 4.8 4.8 0.00 0.00 0.00 61 1019.3
20260503044511 12 47 0.0 0.0 0.00 0.00 0.00 62 1019.3
20260503044011 12 31 0.0 0.0 0.00 0.00 0.00 63 1019.3
20260503043508 12 36 0.0 0.0 0.00 0.00 0.00 64 1019.3
20260503043021 12 65 1.6 1.6 0.00 0.00 0.00 65 1019.3
20260503042509 12 57 1.6 11.3 0.00 0.00 0.00 67 1019.4
20260503042012 12 43 3.2 3.2 0.00 0.00 0.00 67 1019.3
20260503041511 12 68 0.0 0.0 0.00 0.00 0.00 66 1019.3
20260503041012 12 53 1.6 3.2 0.00 0.00 0.00 67 1019.3
20260503040509 12 62 1.6 1.6 0.00 0.00 0.00 65 1019.4
20260503040030 12 42 0.0 0.0 0.00 0.00 0.00 63 1019.4
20260503035508 12 42 6.4 8.0 0.00 0.00 0.00 64 1019.4
20260503035012 12 61 0.0 0.0 0.00 0.00 0.00 62 1019.4
20260503034512 12 53 3.2 3.2 0.00 0.00 0.00 61 1019.4
20260503034012 12 45 1.6 1.6 0.00 0.00 0.00 61 1019.3
20260503033508 12 55 0.0 0.0 0.00 0.00 0.00 59 1019.3
20260503033021 12 79 0.0 0.0 0.00 0.00 0.00 60 1019.3
20260503032509 12 36 6.4 6.4 0.00 0.00 0.00 57 1019.3
20260503032012 12 56 0.0 0.0 0.00 0.00 0.00 56 1019.3
20260503031512 12 57 0.0 0.0 0.00 0.00 0.00 55 1019.3
20260503031012 12 59 0.0 0.0 0.00 0.00 0.00 54 1019.3
20260503030508 12 54 1.6 1.6 0.00 0.00 0.00 53 1019.3
20260503030032 12 54 0.0 0.0 0.00 0.00 0.00 52 1019.3
20260503025509 12 43 1.6 1.6 0.00 0.00 0.00 51 1019.3
20260503025012 12 33 0.0 0.0 0.00 0.00 0.00 49 1019.4
20260503024511 12 41 0.0 0.0 0.00 0.00 0.00 49 1019.3
20260503024012 12 30 0.0 0.0 0.00 0.00 0.00 48 1019.3
20260503023508 12 51 0.0 0.0 0.00 0.00 0.00 47 1019.3
20260503023021 12 26 0.0 0.0 0.00 0.00 0.00 45 1019.3
20260503022509 12 33 0.0 0.0 0.00 0.00 0.00 43 1019.3
20260503022012 12 72 1.6 1.6 0.00 0.00 0.00 45 1019.3
20260503021512 12 81 0.0 0.0 0.00 0.00 0.00 44 1019.2
20260503021012 12 52 0.0 0.0 0.00 0.00 0.00 43 1019.2
20260503020509 12 68 0.0 0.0 0.00 0.00 0.00 43 1019.2
20260503020031 13 73 0.0 0.0 0.00 0.00 0.00 40 1019.2
20260503015508 12 65 0.0 0.0 0.00 0.00 0.00 42 1019.2
20260503015012 12 61 0.0 0.0 0.00 0.00 0.00 42 1019.2
20260503014512 12 63 0.0 0.0 0.00 0.00 0.00 41 1019.2
20260503014012 12 62 0.0 0.0 0.00 0.00 0.00 41 1019.2
20260503013508 12 25 0.0 0.0 0.00 0.00 0.00 41 1019.2
20260503013021 12 65 0.0 0.0 0.00 0.00 0.00 41 1019.2
20260503012509 12 61 0.0 0.0 0.00 0.00 0.00 41 1019.3
20260503012013 12 48 0.0 0.0 0.00 0.00 0.00 41 1019.3
20260503011512 13 39 0.0 0.0 0.00 0.00 0.00 40 1019.4
20260503011012 12 46 0.0 0.0 0.00 0.00 0.00 43 1019.4
20260503010508 12 56 0.0 0.0 0.00 0.00 0.00 44 1019.4
20260503010031 12 45 0.0 0.0 0.00 0.00 0.00 44 1019.5
20260503005509 12 54 0.0 0.0 0.00 0.00 0.00 44 1019.5
20260503005012 12 57 0.0 0.0 0.00 0.00 0.00 43 1019.6
20260503004511 12 59 0.0 0.0 0.00 0.00 0.00 43 1019.7
20260503004012 12 44 0.0 0.0 0.00 0.00 0.00 43 1019.7
20260503003508 13 65 0.0 0.0 0.00 0.00 0.00 41 1019.7
20260503003021 12 55 0.0 0.0 0.00 0.00 0.00 44 1019.8
20260503002508 12 79 1.6 1.6 0.00 0.00 0.00 44 1019.8
20260503002012 12 52 0.0 0.0 0.00 0.00 0.00 45 1019.8
20260503001511 12 76 1.6 1.6 0.00 0.00 0.00 45 1019.9
20260503001012 12 49 0.0 0.0 0.00 0.00 0.00 45 1020.0
20260503000509 12 35 0.0 0.0 0.00 0.00 0.00 46 1020.0
20260503000034 12 64 0.0 0.0 0.00 0.00 0.00 45 1020.1
20260502235508 12 75 0.0 0.0 0.00 0.00 0.00 45 1020.1
20260502235012 12 67 1.6 1.6 0.00 0.00 0.00 45 1020.1
20260502234511 12 65 0.0 0.0 0.00 0.00 0.00 45 1020.1
20260502234012 12 76 0.0 0.0 0.00 0.00 0.00 45 1020.1
20260502233509 12 69 1.6 1.6 0.00 0.00 0.00 45 1020.2
20260502233021 12 76 0.0 0.0 0.00 0.00 0.00 46 1020.2
20260502232509 12 58 1.6 3.2 0.00 0.00 0.00 46 1020.2
20260502232013 12 59 9.7 9.7 0.00 0.00 0.00 46 1020.2
20260502231511 12 62 0.0 0.0 0.00 0.00 0.00 47 1020.2
20260502231012 12 58 0.0 0.0 0.00 0.00 0.00 48 1020.3
20260502230509 12 32 0.0 0.0 0.00 0.00 0.00 49 1020.4
20260502230030 12 39 1.6 1.6 0.00 0.00 0.00 51 1020.4
20260502225509 12 71 1.6 1.6 0.00 0.00 0.00 52 1020.4
20260502225012 12 60 0.0 0.0 0.00 0.00 0.00 53 1020.4
20260502224511 12 60 0.0 0.0 0.00 0.00 0.00 53 1020.4
20260502224012 12 53 0.0 0.0 0.00 0.00 0.00 53 1020.4
20260502223509 12 56 0.0 0.0 0.00 0.00 0.00 52 1020.4
20260502223021 12 47 0.0 0.0 0.00 0.00 0.00 52 1020.5
20260502222508 12 38 0.0 0.0 0.00 0.00 0.00 54 1020.6
20260502222012 12 44 0.0 0.0 0.00 0.00 0.00 55 1020.6
20260502221512 12 74 0.0 0.0 0.00 0.00 0.00 54 1020.6
20260502221012 12 59 0.0 0.0 0.00 0.00 0.00 54 1020.6
20260502220508 12 67 4.8 11.3 0.00 0.00 0.00 55 1020.7
20260502220032 12 58 0.0 0.0 0.00 0.00 0.00 54 1020.7
20260502215509 12 53 0.0 0.0 0.00 0.00 0.00 54 1020.7
20260502215011 12 54 0.0 0.0 0.00 0.00 0.00 54 1020.7
20260502214511 12 70 0.0 0.0 0.00 0.00 0.00 53 1020.7
20260502214012 12 50 0.0 0.0 0.00 0.00 0.00 53 1020.7
20260502213508 13 55 0.0 0.0 0.00 0.00 0.00 52 1020.7
20260502213021 13 58 0.0 0.0 0.00 0.00 0.00 53 1020.7